Regional Weather Roundup
Issued by NWS Albany, NY

Home | Current Version | Previous Version | Text Only | Print | Product List | Glossary On
Versions: 1 2 3 4 5 6 7 8 9 10 11 12 13 14 15 16 17 18 19 20 21 22 23 24 25 26 27 28 29 30 31 32 33 34 35 36 37 38 39 40 41 42 43 44 45 46 47 48 49 50
000
ASUS41 KALY 312210
RWRALY

NEW YORK STATE HOURLY WEATHER ROUNDUP
NATIONAL WEATHER SERVICE ALBANY NY
500 PM EST SAT JAN 31 2015

NOTE: "FAIR" INDICATES FEW OR NO CLOUDS BELOW 12,000 FEET WITH NO
SIGNIFICANT WEATHER AND/OR NO OBSTRUCTIONS TO VISIBILITY.

NYZ032-033-038>043-046>054-057>066-NYZ062>081-312300-
EAST


CITY           SKY/WX    TMP DP  RH WIND       PRES   REMARKS
ALBANY         CLEAR     14  -3  47 W21G30    30.15R WCI  -4
GLENS FALLS    CLEAR     10  -5  50 CALM      30.14R
POUGHKEEPSIE   CLEAR     23  -3  32 NW9       30.12R WCI  13
NEWBURGH       CLEAR     19   3  49 NW14G25   30.10R WCI   6
MONTGOMERY     CLEAR     21   0  39 NW9G24    30.11R WCI  11
WHITE PLAINS   CLEAR     22  -1  36 NW24G32   30.07R WCI   5
ISLIP          CLEAR     24  -2  32 NW17G25   30.06R WCI  11
NEW YORK CITY  CLEAR     25   5  42 NW23G31   30.13R WCI  10
CENTRAL PARK   CLEAR     25   0  33 NW17G24   30.13R WCI  12
$$

NYZ005>009-017-018-044>046-055-056-312300-
CENTRAL


CITY           SKY/WX    TMP DP  RH WIND       PRES   REMARKS
FULTON         CLOUDY    13   5  70 CALM      30.22F
SYRACUSE       CLOUDY    13   5  70 W5        30.22F WCI   5
ROME           CLOUDY    11   2  67 NW9       30.23F WCI  -2
ELMIRA         CLEAR     22   7  52 NW5       30.16F WCI  16
BINGHAMTON     PTCLDY    13   4  67 NW8       30.10F WCI   2
MONTICELLO     CLEAR     16   1  53 NW14G23   30.06F WCI   1
$$

NYZ026>034-041>043-312300-
NORTH


CITY           SKY/WX    TMP DP  RH WIND       PRES   REMARKS
WATERTOWN      CLOUDY    10  -1  61 S3        30.23F
FORT DRUM      NOT AVBL
MASSENA        CLEAR      4 -11  50 SW12      30.23R WCI -12
SARANAC LAKE   CLEAR      3 -11  52 W5        30.03R WCI  -6
PLATTSBURGH    CLEAR     11 -11  36 NW12      30.15R WCI  -3
$$

NYZ001>004-010>016-019>021-312300-
WEST


CITY           SKY/WX    TMP DP  RH WIND       PRES   REMARKS
NIAGARA FALLS  PTCLDY    21  15  78 SW12      30.19S WCI   9
BUFFALO        MOCLDY    21  13  71 SW15G21   30.19F WCI   8
DUNKIRK        CLOUDY    25  15  66 SW9       30.20F WCI  15
JAMESTOWN      CLOUDY    19  12  73 S7        30.14S WCI  10
WELLSVILLE     CLEAR     19   4  51 W13       30.10S WCI   6
ROCHESTER      MOCLDY    22  10  60 W9        30.19F WCI  12
PENN YAN       PTCLDY    15   6  67 CALM      30.17F
$$

             KEY
       WCI = WIND CHILL INDEX
       VSB = VISIBILITY
       HX  = HEAT INDEX
$$



USA.gov is the U.S. government's official web portal to all federal, state and local government web resources and services.